Regional Weather Roundup
Issued by NWS

Home | Current Version | Previous Version | Text Only | Print | Product List | Glossary Off
Versions: 1 2 3 4 5 6 7 8 9 10 11 12 13 14 15 16 17 18 19 20 21 22 23 24 25 26 27 28 29 30 31 32 33 34 35 36 37 38 39 40 41 42 43 44 45 46 47 48 49 50

000
ASUS43 KMPX 260801
RWRMN
WEATHER ROUNDUP FOR MINNESOTA
NATIONAL WEATHER SERVICE TWIN CITIES/CHANHASSEN MN
300 AM CDT FRI MAY 26 2017


NOTE: "FAIR" INDICATES FEW OR NO CLOUDS BELOW 12,000 FEET WITH NO
SIGNIFICANT WEATHER AND/OR OBSTRUCTIONS TO VISIBILITY. N/A MEANS
CURRENT SKY AND/OR WEATHER CONDITIONS ARE NOT AVAILABLE.

MNZ060>063-068>070-260900-
   Twin Cities Metro

CITY           SKY/WX    TMP DP  RH WIND       PRES   REMARKS
TWIN CITIES    CLOUDY    62  53  72 SE8       29.70R
ST PAUL        CLOUDY    60  56  86 SE5       29.71R
CRYSTAL        CLOUDY    60  52  74 SE7       29.68S
BLAINE         CLOUDY    63  55  77 SE6       29.70R
LAKEVILLE      CLOUDY    57  55  94 SE3       29.71R
EDEN PRAIRIE   CLOUDY    61  53  75 SE8       29.69R
SOUTH ST PAUL  CLOUDY    61  54  79 S5        29.71R
LAKE ELMO      CLOUDY    61  55  82 SE3       29.72S
$$
MNZ001>005-007-008-013>017-022>024-027-028-260900-
   Northwest Minnesota

CITY           SKY/WX    TMP DP  RH WIND       PRES   REMARKS
BEMIDJI        CLOUDY    55  51  85 SE7       29.63S
HALLOCK        CLEAR     54  48  82 S9        29.55R
ROSEAU         CLOUDY    61  52  72 S14       29.56F
WARROAD        CLOUDY    59  52  77 S14       29.58F
CROOKSTON      PTCLDY    52  48  87 SW3       29.59R
FOSSTON        CLOUDY    57  48  72 S10       29.60S
DETROIT LAKES  CLOUDY    54  50  87 S6        29.63S
MOORHEAD       CLEAR     57  52  82 S8        29.61R
PARK RAPIDS    LGT RAIN  57  50  77 SE8       29.63F
MAHNOMEN       FAIR      57  51  80 S7        29.60S
$$
MNZ006-009>011-018-025>026-260900-
   North Central Minnesota

CITY           SKY/WX    TMP DP  RH WIND       PRES   REMARKS
BAUDETTE       CLOUDY    59  50  72 SE10      29.61S
FLAG ISLAND    CLOUDY    57  52  82 S17       29.57S
INTL FALLS     LGT RAIN  54  50  86 SE10      29.67F
WASKISH        CLOUDY    59  52  77 SE9       29.62S
BIG FORK       LGT RAIN  54  50  87 SE5       29.68S
LONGVILLE      CLOUDY    54  52  94 SE6       29.66F
GRAND RAPIDS   LGT RAIN  51  50  96 SE8       29.70F
CRANE LAKE     RAIN      52  46  82 CALM      29.73S
COOK           DRIZZLE   52  48  87 CALM      29.72S
WALKER         CLOUDY    57  51  80 S9        29.64S
$$
MNZ012-019>021-037-260900-
   Northeast Minnesota

CITY           SKY/WX    TMP DP  RH WIND       PRES   REMARKS
DULUTH         LGT RAIN  49  45  86 E6        29.74S
ELY            CLOUDY    54  45  71 CALM      29.73R
HIBBING        LGT RAIN  49  48  97 SE5       29.72S FOG
EVELETH        LGT RAIN  53  48  84 SE3       29.74S
DULUTH HARBOR  LGT RAIN  46  45  93 CALM      29.76S
TWO HARBORS    LGT RAIN  54  46  76 S5        29.74R
SILVER BAY     CLOUDY    54  46  76 CALM      29.72S
GRAND MARAIS     N/A     53  44  71 NE6       29.76R
G MARAIS ARPRT MOCLDY    52  41  66 E6        29.78S
$$
MNZ029>031-032-039>041-046>048-054>057-064-260900-
   West Central Minnesota

CITY           SKY/WX    TMP DP  RH WIND       PRES   REMARKS
FERGUS FALLS   PTCLDY    55  52  88 S6        29.61S
WHEATON        CLOUDY    54  50  87 S5        29.64R
MORRIS         MOCLDY    54  52  94 SE9       29.62S
ALEXANDRIA     CLOUDY    54  51  90 S6        29.65S
ELBOW LAKE     FAIR      52  51  97 E8        29.62S
WADENA         PTCLDY    55  50  82 S6        29.63F
GLENWOOD       PTCLDY    55  52  88 S8        29.65S
BENSON         PTCLDY    55  50  82 S8        29.66R
ORTONVILLE     PTCLDY    54  52  94 S6        29.63R
MADISON        MOCLDY    55  55 100 SW3       29.64R
WILLMAR        FAIR      54  52  94 SE3       29.67S
$$
MNZ033>034-036-042>043-049>051-058-059-260900-
   Central Minnesota

CITY           SKY/WX    TMP DP  RH WIND       PRES   REMARKS
ST CLOUD       CLOUDY    59  54  83 SE6       29.67S
SAUK CENTRE    CLOUDY    54  51  90 S5        29.66R
PAYNESVILLE    CLOUDY    58  50  75 S7        29.66F
AITKIN         CLOUDY    52  50  93 E3        29.67F
PINE RIVER     CLOUDY    55  54  94 SE6       29.70S
BRAINERD       CLOUDY    56  53  90 SE5       29.66F
STAPLES        CLOUDY    57  52  82 SE6       29.65S
LONG PRAIRIE   FAIR      54  50  87 SE6       29.66S
LITTLE FALLS   CLOUDY    55  52  88 SE6       29.66S
LITCHFIELD     CLOUDY    63  54  72 S5        29.67S
BUFFALO        CLOUDY    59  52  78 SE3       29.69R
MAPLE LAKE     CLOUDY    60  55  82 SE3       29.69R
HUTCHINSON     CLOUDY    60  53  77 SE3       29.68S
$$
MNZ037-044-045-052-053-260900-
   East Central Minnesota

CITY           SKY/WX    TMP DP  RH WIND       PRES   REMARKS
PRINCETON      CLOUDY    61  55  82 SE6       29.68S
MORA           CLOUDY    55  54  94 E5        29.71F
CAMBRIDGE      CLOUDY    63  54  72 SE5       29.68S
RUSH CITY      CLOUDY    57  55  91 E3        29.70F
MOOSE LAKE     DRIZZLE   46  45  93 NE5       29.71F
HINCKLEY       CLOUDY    54  52  94 CALM      29.71S
CLOQUET        RAIN      46  45  93 E5        29.74S
MCGREGOR       CLOUDY    50  50 100 E5        29.71S
$$
MNZ071>073-080-081-089-090-097-098-260900-
   Southwest Minnesota

CITY           SKY/WX    TMP DP  RH WIND       PRES   REMARKS
MONTEVIDEO     PTCLDY    55  52  88 S6        29.65R
CANBY          PTCLDY    60  53  75 CALM      29.66R
MARSHALL       CLEAR     55  51  86 S7        29.66R
REDWOOD FALLS  CLOUDY    57  51  80 SE8       29.66R
OLIVIA         CLOUDY    55  50  82 S7        29.66R
PIPESTONE      CLEAR     57  46  67 S5        29.67S
WINDOM         CLOUDY    61  52  72 S6        29.68S
WORTHINGTON    MOCLDY    60  52  74 S9        29.68R
JACKSON        CLOUDY    59  50  72 S5        29.69S
TRACY          CLOUDY    58  53  83 S10       29.67R
SLAYTON        CLOUDY    51  49  93 S7        29.68S
$$
MNZ065>067-074>077-082>085-091>093-260900-
   South Central Minnesota

CITY           SKY/WX    TMP DP  RH WIND       PRES   REMARKS
MANKATO        CLOUDY    58  51  78 SE9       29.69S
NEW ULM        CLOUDY    57  50  77 S5        29.68S
ST JAMES       CLOUDY    61  52  72 S8        29.69S
FAIRMONT       CLOUDY    58  52  80 S8        29.69F
GLENCOE        CLOUDY    60  55  84 SE6       29.68R
FARIBAULT      CLOUDY    57  52  82 SE3       29.72R
OWATONNA       CLOUDY    61  50  67 S7        29.71S
WASECA         PTCLDY    55  50  82 SE8       29.72S
ALBERT LEA     PTCLDY    61  54  77 S8        29.71F
$$
MNZ078>079-086>088-094>096-260900-
   Southeast Minnesota

CITY           SKY/WX    TMP DP  RH WIND       PRES   REMARKS
ROCHESTER      CLOUDY    57  55  93 SE8       29.75R
RED WING       PTCLDY    61  54  77 SE6       29.73R
STANTON        CLOUDY    62  53  73 S7        29.70R
DODGE CENTER   PTCLDY    57  52  82 SE3       29.73R
WINONA         CLOUDY    57  55  94 CALM      29.76R
AUSTIN         PTCLDY    57  50  77 S5        29.72F
PRESTON        CLOUDY    58  52  80 S8        29.76R
$$
ABBREVIATIONS USED IN REMARKS
   TC - TEMPERATURES IN CELSIUS
  WCI - WIND CHILL INDEX
   HX - HEAT INDEX
  VSB - VISIBILITY
$$




USA.gov is the U.S. government's official web portal to all federal, state and local government web resources and services.